sat.trackr.live / text

‹ back to catalog

METEOSAT-10 (MSG-3)

NORAD 38552 · 2012-035B

PAYLOAD ACTIVE UNKNOWN

§ Identity

Operator
Country
EUME
Launch date
2012-07-05
Launch site
FRGUI
Launch vehicle
Mass (kg)
RCS (m²)
4.39

Purposes: comms, earth_obs

External: N2YO · Heavens-Above · Gunter

§ Orbital elements

Epoch: 2026-09-20T01:31:32.103264Z

Period
1,436.08 min
Inclination
4.8912°
Eccentricity
0.0000923
Mean motion
1.00272682 rev/d
Perigee alt
35,782.5 km
Apogee alt
35,790.2 km
Semi-major
42,164.5 km
B*
0.0000e+0
RAAN
60.4816°
Arg perigee
101.5165°
Mean anomaly
219.9177°
Rev number
5,180

§ Raw data

METEOSAT-10 (MSG-3)1 38552U 12035B   26263.06356601 -.00000009  00000+0  00000+0 0  99982 38552   4.8912  60.4816 0000923 101.5165 219.9177  1.00272682 51805

JSON: /api/v1/satellites/38552 · /tle

For live sub-satellite position, see the globe view (requires WebGL).

§ Visibility from observer

Set your observer location to see the next 7 days of passes ≥ 10°. The values pass through the URL so the page stays shareable.

No JS? Fill the form by hand. The geolocation button needs JavaScript.